This demonstration page uses our WeatherBlox Daily Observations layout. Learn more.

Left ArrowRight Arrow

Hourly Observations for August 26, 2020

Temp ( °F °C ) Dew Point ( °F °C ) Humidity (%) Winds ( mph kmh ) Pressure ( in mb ) Visibility ( mi km ) Precip ( " mm )
12:54 am 00:54 Clear 71 21.7 60 15.6 68 68 S 8 13 29.91 1013 10 16.0934 0 0
1:54 am 01:54 Clear 70 21.1 60 15.6 71 71 S 8 13 29.91 1013 10 16.0934 0 0
2:54 am 02:54 Clear 68 20 60 15.6 76 76 S 7 11 29.91 1013 10 16.0934 0 0
3:54 am 03:54 Clear 67 19.4 60 15.6 79 79 S 6 9 29.91 1013 10 16.0934 0 0
4:54 am 04:54 Clear 66 18.9 60 15.6 81 81 S 7 11 29.91 1013 9 14.48406 0 0
5:54 am 05:54 Clear 66 18.9 60 15.6 81 81 S 5 7 29.91 1013 9 14.48406 0 0
6:54 am 06:54 Sunny 64 17.8 59 15 84 84 S 6 9 29.91 1013 8 12.87472 0 0
7:54 am 07:54 Sunny 68 20 62 16.7 81 81 S 7 11 29.92 1013 8 12.87472 0 0
8:54 am 08:54 Sunny 76 24.4 63 17.2 64 64 SSW 8 13 29.9 1013 8 12.87472 0 0
9:54 am 09:54 Sunny 83 28.3 62 16.7 49 49 SSW 13 20 29.88 1012 9 14.48406 0 0
10:54 am 10:54 Sunny 86 30 62 16.7 45 45 SSW 17 28 29.88 1012 9 14.48406 0 0
11:54 am 11:54 Sunny 89 31.7 62 16.7 41 41 SSW 21 33 29.86 1011 9 14.48406 0 0
12:54 pm 12:54 Sunny 91 32.8 60 15.6 35 35 SSW 22 35 29.85 1011 9 14.48406 0 0
1:54 pm 13:54 Sunny 93 33.9 61 16.1 34 34 SSW 17 28 29.83 1010 9 14.48406 0 0
2:54 pm 14:54 Sunny 94 34.4 58 14.4 30 30 S 18 30 29.81 1010 9 14.48406 0 0
3:54 pm 15:54 Sunny 94 34.4 56 13.3 28 28 S 18 30 29.79 1009 9 14.48406 0 0
4:54 pm 16:54 Sunny 93 33.9 57 13.9 30 30 S 21 33 29.79 1009 9 14.48406 0 0
5:54 pm 17:54 Sunny 92 33.3 58 14.4 32 32 SSW 12 19 29.79 1009 9 14.48406 0 0
6:54 pm 18:54 Sunny 89 31.7 59 15 36 36 S 8 13 29.79 1009 9 14.48406 0 0
7:54 pm 19:54 Sunny 82 27.8 62 16.7 51 51 S 8 13 29.79 1009 9 14.48406 0 0
8:54 pm 20:54 Clear 77 25 62 16.7 60 60 S 9 15 29.78 1009 10 16.0934 0 0
9:54 pm 21:54 Clear 74 23.3 62 16.7 67 67 S 9 15 29.79 1009 10 16.0934 0 0
10:54 pm 22:54 Clear 72 22.2 62 16.7 71 71 S 9 15 29.79 1009 10 16.0934 0 0
11:54 pm 23:54 Clear 72 22.2 61 16.1 68 68 S 7 11 29.8 1009 10 16.0934 0 0

Powered by AerisWeather